Regional Weather Roundup
Issued by NWS

Home | Current Version | Previous Version | Text Only | Print | Product List | Glossary On
Versions: 1 2 3 4 5 6 7 8 9 10 11 12 13 14 15 16 17 18 19 20 21 22 23 24 25 26 27 28 29 30 31 32 33 34 35 36 37 38 39 40 41 42 43 44 45 46 47 48 49 50
000
ASHW40 PHFO 030843
RWRHI

WEATHER ROUNDUP FOR HAWAII
NATIONAL WEATHER SERVICE HONOLULU HI
1000 PM HST MON MAR 02 2015

THIS IS AN AUTOMATED REPORT THAT HAS NOT BEEN QUALITY CONTROLLED.

NOTE..."FAIR" INDICATES FEW OR NO CLOUDS BELOW 12,000 FEET WITH NO
SIGNIFICANT WEATHER AND/OR OBSTRUCTIONS TO VISIBILITY.

* - THESE SITES REPORT LIMITED FIELDS

HIZ001>004-030900-
KAUAI-NIIHAU-

CITY           SKY/WX    TMP DP  RH WIND       PRES   REMARKS
LIHUE APT      LGT RAIN  72  68  88 NE18      30.10S
PORT ALLEN*      N/A     73 N/A N/A E14         N/A
POIPU*         NOT AVBL
PRINCEVILLE*     N/A     72 N/A N/A MISG        N/A
KOKOLE POINT*  NOT AVBL
MOLOAA DAIRY*  NOT AVBL
WAIMEA HTS*    NOT AVBL
PUU OPAE*        N/A     64  59  82 CALM        N/A
PUU LUA*       NOT AVBL
MAKAHA RIDGE*  NOT AVBL
$$

HIZ005>011-030900-
OAHU-

CITY           SKY/WX    TMP DP  RH WIND       PRES   REMARKS
HONOLULU       PTCLDY    75  65  70 N6        30.07R
KALAELOA       PTCLDY    72  63  73 VRB3      30.08R
KANEOHE MCB    MOCLDY    75  68  78 NE8       30.05F
WHEELER FIELD  FAIR      70  64  80 NW6       30.08S
BELLOWS*         N/A    N/A N/A N/A N9G15       N/A
KAHUKU*          N/A    N/A N/A N/A NE6         N/A
WHEELER*       NOT AVBL
WAIANAE HARBOR NOT AVBL
DILLINGHAM*      N/A     70  66  88 MISG        N/A
KAHUKU TRN*      N/A     72  68  88 E5G14       N/A
KAWAILOA*        N/A     68  64  88 E8G18       N/A
KII*             N/A     75  70  83 NE13G20     N/A
MAKUA RANGE*     N/A     73  64  73 E7G14       N/A
OAHU FOREST NW   N/A    N/A N/A N/A CALM        N/A
SCHOFIELD BRK*   N/A     66  63  88 MISG        N/A
SCHOFIELD S*   NOT AVBL
WAIANAE VLY*     N/A     72  61  68 N10G26      N/A
KUAOKALA*        N/A     70  64  83 CALM        N/A
HONOULIUULI*   NOT AVBL
MOKUOLOE IS*     N/A    N/A N/A N/A MISG        N/A
PALEHUA*         N/A     77  64  65 CALM        N/A
WAIAWA PHB*    NOT AVBL
$$

HIZ012>013-030900-
MOLOKAI-

CITY           SKY/WX    TMP DP  RH WIND       PRES   REMARKS
MOLOKAI AIRPT  CLOUDY    70  70 100 N8G18     30.07F
KALAUPAPA      NOT AVBL
MAKAPULAPAI*     N/A     73  70  88 NE14G20     N/A
MOLOKAI 1*       N/A     64  63  94 SE3G13      N/A
PUU ALII*        N/A     58  58  99 E2G13       N/A
$$

HIZ016-030900-
KAHOOLAWE-

CITY           SKY/WX    TMP DP  RH WIND       PRES   REMARKS
KAHOOLAWE*       N/A     68 N/A N/A NE10G18     N/A
HAKIOAWA*        N/A     68  67  95 MISG      30.48S
HONOKANAIA*      N/A     75  68  77 VRB13G21  30.06R
KANELOA*         N/A     73  68  83 MISG      29.27R
KEALIALALO*    NOT AVBL
LUA MAKIKA*    NOT AVBL
$$

HIZ014>015-030900-
LANAI-

CITY           SKY/WX    TMP DP  RH WIND       PRES   REMARKS
LANAI CITY     FAIR      69  67  93 NE15G24   30.10S
LANAI 1*         N/A     70  70 100 NE18G29     N/A
$$

HIZ017>028-030900-
MAUI-

CITY           SKY/WX    TMP DP  RH WIND       PRES   REMARKS
KAHULUI        PTCLDY    74  68  81 N12       30.07R
KAPALUA-W MAUI NOT AVBL
HANA AIRPORT   PTCLDY    66  66 100 CALM      30.10S
HANA*            N/A     68 N/A N/A S5          N/A
HALEAKALA SUMM   N/A     37  30  75 E18         N/A  WCI  27
MAALAEA BAY*   NOT AVBL
HALEAKALA*     NOT AVBL
KAUPO GAP*       N/A     61  43  51 N8G14       N/A
KULA 1*          N/A     50  35  56 E7          N/A
$$

HIZ023>026-030900-
BIG ISLAND OF HAWAII COAST AND LOWER SLOPES-

CITY           SKY/WX    TMP DP  RH WIND       PRES   REMARKS
KAILUA KONA    CLEAR     77  63  61 N3        30.00S
HILO           CLEAR     68  64  87 SW8       30.06R
HONOKAA*       NOT AVBL
KAWAIHAE MWT*    N/A     77 N/A N/A NE5         N/A
KAWAIHAE*        N/A     75 N/A N/A E2          N/A
SOUTH POINT*     N/A     70 N/A N/A NE10        N/A
UPOLU AIRPORT*   N/A    N/A N/A N/A E8          N/A
KAMUELA*       MOSUNNY   63  59  88 NE17      30.13F
HAKALAU*         N/A     46  43  87 SW3G9       N/A
KALOKO-HONOKO*   N/A    N/A N/A N/A E3          N/A
PALI 2*          N/A     63  57  82 N10         N/A
KEALAKOMO*       N/A     75  61  60 VRB13       N/A
KAUPULEHU*       N/A     66  57  72 SE7         N/A
KAPAPALA*        N/A     63  60  91 CALM        N/A
LOWER KAHUKU*    N/A     63  59  88 NW1         N/A
PUHE CS*         N/A     73  63  68 E3          N/A
PUHO CS*         N/A     74  62  66 E2          N/A
PTA KEAMUKU*     N/A     57  52  82 CALM        N/A
WAIKOLOA*        N/A     70  57  64 E12G17      N/A
$$

HIZ027>028-030900-
BIG ISLAND OF HAWAII INTERIOR AND SUMMMITS-

CITY           SKY/WX    TMP DP  RH WIND       PRES   REMARKS
BRADSHAW FIELD CLOUDY    51  44  75 SE5       30.35R
MK VISITOR CEN NOT AVBL
MAUNA KEA*       N/A     27  21  80 SE5         N/A  WCI  21
MAUNA LOA*       N/A    N/A N/A N/A MISG        N/A
MAUNA LOA 1*   NOT AVBL
PTA KIPUKA*      N/A     54  46  76 SE5         N/A
PTA RANGE 17*    N/A     54  45  71 E7          N/A
PTA WEST*        N/A     55  48  76 SE7G14      N/A
NENE CABIN*      N/A     52  37  58 N5          N/A
AHUMOA*          N/A     52  40  64 E6          N/A
PTA PORTABLE*  NOT AVBL
PUU MALI*      NOT AVBL
$$

HIC003-030900-
NORTHWEST ISLANDS-

CITY           SKY/WX    TMP DP  RH WIND       PRES   REMARKS
MIDWAY ISLAND  CLOUDY    63  52  67 E16       30.43R
MIDWAY NOS*    NOT AVBL
FRENCH FRIGATE NOT AVBL
$$

PHZ110>124-180-030900-
BUOY REPORTS

STATION/POSITION TIME  TEMP    WIND        PRES    WAVE   SWELL
                       AIR SEA DIR/SP/G            HT/PER HT/DIR
                 (UTC) (F)     (DEG/KT/KT) (MB)    (FT/S) (FT/D)
BUOY 51001       NOT AVBL
BUOY 51101       0800   69 71   20/ 19/ 25 1021.1R  10/ 9   7/ 30
BUOY 51100       0800   74 75   30/  6/  6 1019.3R
BUOY 51003       0800   77 78   50/ 17/ 19 1016.1F   9/13   7
BUOY 51004       0701   77 78   80/ 16/ 17 1015.9R   8/15   7/350
BARBERS PT BUOY  NOT AVBL
WAIMEA BAY BUOY  0800      77                N/A     7/12
KAILUA BAY BUOY  0800      77                N/A     6/13   3/340
LANAI BUOY       0800      76                N/A     3/13   2/260
BARBERS PT 2     0800      78                N/A     4/13   3/300
PAUWELA MAUI     0800      76                N/A     8/12   5/320
HILO             0800      76                N/A     8/13   5/340
KANEOHE BAY BUOY 0800      77                N/A     6/13   3/340
HANALEI KAUAI    NOT AVBL
KAHULUI HARBOR   0800   74 77                N/A
HONOLULU HARBOR  0800   75 76                N/A
KILO NALU        NOT AVBL
HILO HARBOR      0800   69 77                N/A
MOKUOLOE         0800      77                N/A
NAWILIWILI       0800   71 78                N/A
WHOTS BUOY       NOT AVBL
BUOY 51028       NOT AVBL
$$

......................KEY........................................
  SKY/WX - SKY CONDITIONS/PRESENT WEATHER
  TMP    - TEMPERATURE IN FAHRENHEIT
  DWPT   - DEWPOINT IN FAHRENHEIT
  RH     - RELATIVE HUMIDITY IN PERCENT
  WIND   - DIRECTION AND SPEED /MPH FOR ISLANDS...KTS FOR BUOYS/
  PRES   - MEAN SEA LEVEL PRESSURE IN INCHES OF HG
  VSB    - VISIBILITY IN MILES
  HX     - HEAT INDEX
  WCI    - WIND CHILL INDEX
  VRB    - VARIABLE WIND DIRECTION
  N/A    - NOT AVAILABLE


USA.gov is the U.S. government's official web portal to all federal, state and local government web resources and services.